TimeEST,TemperatureF,Dew PointF,Humidity,Sea Level PressureIn,VisibilityMPH,Wind Direction,Wind SpeedMPH,Gust SpeedMPH,PrecipitationIn,Events,Conditions,WindDirDegrees,DateUTC
12:15 AM,39.0,25.9,59,30.09,10.0,Calm,Calm,-,N/A,,Clear,0,2014-02-23 05:15:00
12:35 AM,38.7,26.8,62,30.09,10.0,Calm,Calm,-,N/A,,Clear,0,2014-02-23 05:35:00
12:55 AM,37.9,27.1,65,30.09,10.0,Calm,Calm,-,N/A,,Clear,0,2014-02-23 05:55:00
1:15 AM,36.3,27.1,69,30.09,10.0,Calm,Calm,-,N/A,,Clear,0,2014-02-23 06:15:00
1:35 AM,36.1,27.7,71,30.09,10.0,Calm,Calm,-,N/A,,Clear,0,2014-02-23 06:35:00
1:55 AM,33.3,27.5,79,30.08,10.0,Calm,Calm,-,N/A,,Clear,0,2014-02-23 06:55:00
2:15 AM,34.2,28.2,79,30.08,10.0,Calm,Calm,-,N/A,,Clear,0,2014-02-23 07:15:00
2:35 AM,32.5,27.9,83,30.08,10.0,Calm,Calm,-,N/A,,Clear,0,2014-02-23 07:35:00
2:55 AM,32.0,27.5,83,30.08,10.0,Calm,Calm,-,N/A,,Clear,0,2014-02-23 07:55:00
3:15 AM,34.3,28.4,79,30.08,10.0,Calm,Calm,-,N/A,,Clear,0,2014-02-23 08:15:00
3:35 AM,33.4,27.3,78,30.07,10.0,WSW,3.5,-,N/A,,Clear,240,2014-02-23 08:35:00
3:55 AM,31.8,27.3,83,30.07,10.0,Calm,Calm,-,N/A,,Clear,0,2014-02-23 08:55:00
4:15 AM,29.7,26.2,87,30.07,10.0,Calm,Calm,-,N/A,,Clear,0,2014-02-23 09:15:00
4:35 AM,29.3,26.4,89,30.07,10.0,Calm,Calm,-,N/A,,Clear,0,2014-02-23 09:35:00
4:55 AM,30.7,27.3,87,30.08,10.0,Calm,Calm,-,N/A,,Clear,0,2014-02-23 09:55:00
5:15 AM,30.2,27.3,89,30.07,10.0,Calm,Calm,-,N/A,,Clear,0,2014-02-23 10:15:00
5:35 AM,31.6,27.9,86,30.08,10.0,Calm,Calm,-,N/A,,Clear,0,2014-02-23 10:35:00
5:55 AM,32.0,27.9,85,30.07,10.0,Calm,Calm,-,N/A,,Clear,0,2014-02-23 10:55:00
6:15 AM,31.3,28.6,90,30.08,10.0,Calm,Calm,-,N/A,,Clear,0,2014-02-23 11:15:00
6:35 AM,32.4,29.3,88,30.07,10.0,Calm,Calm,-,N/A,,Clear,0,2014-02-23 11:35:00
6:55 AM,32.0,28.4,87,30.07,10.0,SW,3.5,-,N/A,,Clear,220,2014-02-23 11:55:00
7:15 AM,31.5,27.9,87,30.07,10.0,Calm,Calm,-,N/A,,Clear,0,2014-02-23 12:15:00
7:35 AM,32.0,28.2,86,30.07,10.0,Calm,Calm,-,N/A,,Clear,0,2014-02-23 12:35:00
7:55 AM,31.8,28.8,88,30.08,10.0,Calm,Calm,-,N/A,,Clear,0,2014-02-23 12:55:00
8:15 AM,33.1,30.7,91,30.08,10.0,Calm,Calm,-,N/A,,Clear,0,2014-02-23 13:15:00
8:35 AM,38.5,32.4,79,30.08,10.0,Calm,Calm,-,N/A,,Clear,0,2014-02-23 13:35:00
8:55 AM,41.9,32.0,68,30.08,10.0,Calm,Calm,-,N/A,,Clear,0,2014-02-23 13:55:00
9:15 AM,45.7,32.5,60,30.08,10.0,SW,4.6,-,N/A,,Clear,230,2014-02-23 14:15:00
9:35 AM,49.3,32.0,51,30.07,10.0,SW,5.8,-,N/A,,Scattered Clouds,230,2014-02-23 14:35:00
9:55 AM,51.1,32.5,49,30.06,10.0,SW,4.6,-,N/A,,Scattered Clouds,230,2014-02-23 14:55:00
10:15 AM,54.1,32.5,44,30.05,10.0,SW,4.6,-,N/A,,Clear,230,2014-02-23 15:15:00
10:35 AM,56.8,31.5,38,30.03,10.0,WSW,5.8,-,N/A,,Clear,240,2014-02-23 15:35:00
10:55 AM,58.5,32.0,37,30.02,10.0,WSW,8.1,-,N/A,,Clear,240,2014-02-23 15:55:00
11:15 AM,59.5,32.4,36,30.02,10.0,WSW,6.9,-,N/A,,Clear,240,2014-02-23 16:15:00
11:35 AM,62.1,32.2,33,30.01,10.0,WSW,6.9,-,N/A,,Clear,240,2014-02-23 16:35:00
11:55 AM,63.9,32.4,31,30.00,10.0,SW,9.2,-,N/A,,Clear,220,2014-02-23 16:55:00
12:15 PM,64.6,32.2,30,30.00,10.0,SSW,9.2,-,N/A,,Clear,210,2014-02-23 17:15:00
12:35 PM,65.7,31.1,27,29.99,10.0,SSW,13.8,18.4,N/A,,Clear,210,2014-02-23 17:35:00
12:55 PM,65.7,30.9,27,29.98,10.0,SW,9.2,-,N/A,,Clear,220,2014-02-23 17:55:00
1:15 PM,65.7,31.1,27,29.96,10.0,SSW,9.2,-,N/A,,Clear,210,2014-02-23 18:15:00
1:35 PM,66.6,28.6,24,29.95,10.0,SW,11.5,-,N/A,,Clear,230,2014-02-23 18:35:00
1:55 PM,67.3,28.0,23,29.94,10.0,SSW,11.5,-,N/A,,Clear,200,2014-02-23 18:55:00
2:15 PM,68.2,27.7,22,29.94,10.0,WSW,15.0,20.7,N/A,,Clear,240,2014-02-23 19:15:00
2:35 PM,68.2,28.9,23,29.93,10.0,South,12.7,19.6,N/A,,Clear,190,2014-02-23 19:35:00
2:55 PM,68.5,29.5,23,29.92,10.0,SSW,11.5,16.1,N/A,,Clear,210,2014-02-23 19:55:00
3:15 PM,68.9,29.7,23,29.91,10.0,SW,11.5,19.6,N/A,,Clear,230,2014-02-23 20:15:00
3:35 PM,68.9,28.9,23,29.91,10.0,SW,10.4,16.1,N/A,,Clear,220,2014-02-23 20:35:00
3:55 PM,68.9,28.2,22,29.90,10.0,SW,10.4,17.3,N/A,,Clear,230,2014-02-23 20:55:00
4:15 PM,69.1,27.7,21,29.89,10.0,SSW,11.5,-,N/A,,Clear,200,2014-02-23 21:15:00
4:35 PM,68.5,26.8,21,29.89,10.0,WSW,11.5,17.3,N/A,,Clear,250,2014-02-23 21:35:00
4:55 PM,68.2,27.7,22,29.88,10.0,SSW,10.4,-,N/A,,Clear,200,2014-02-23 21:55:00
5:15 PM,67.5,28.2,23,29.88,10.0,SSW,9.2,-,N/A,,Clear,210,2014-02-23 22:15:00
5:35 PM,66.7,28.2,24,29.88,10.0,SW,6.9,-,N/A,,Clear,220,2014-02-23 22:35:00
5:55 PM,64.9,29.3,26,29.88,10.0,SSW,5.8,-,N/A,,Clear,200,2014-02-23 22:55:00
6:15 PM,63.3,30.0,29,29.88,10.0,SSW,4.6,-,N/A,,Clear,210,2014-02-23 23:15:00
6:35 PM,62.1,30.4,30,29.88,10.0,SSW,5.8,-,N/A,,Clear,200,2014-02-23 23:35:00
6:55 PM,61.5,30.4,31,29.88,10.0,SSW,5.8,-,N/A,,Clear,200,2014-02-23 23:55:00
7:15 PM,59.7,30.7,33,29.88,10.0,SSW,4.6,-,N/A,,Clear,200,2014-02-24 00:15:00
7:35 PM,54.0,31.6,43,29.88,10.0,Calm,Calm,-,N/A,,Clear,0,2014-02-24 00:35:00
7:55 PM,51.8,32.5,48,29.88,10.0,SSW,3.5,-,N/A,,Clear,200,2014-02-24 00:55:00
8:15 PM,53.4,32.4,45,29.89,10.0,South,3.5,-,N/A,,Clear,190,2014-02-24 01:15:00
8:35 PM,48.7,33.3,55,29.88,10.0,Calm,Calm,-,N/A,,Clear,0,2014-02-24 01:35:00
8:55 PM,46.0,32.5,59,29.88,10.0,Calm,Calm,-,N/A,,Clear,0,2014-02-24 01:55:00
9:15 PM,45.1,32.4,61,29.88,10.0,Calm,Calm,-,N/A,,Clear,0,2014-02-24 02:15:00
9:35 PM,45.0,32.2,61,29.88,10.0,Calm,Calm,-,N/A,,Clear,0,2014-02-24 02:35:00
9:55 PM,44.1,32.2,63,29.88,10.0,Calm,Calm,-,N/A,,Clear,0,2014-02-24 02:55:00
10:15 PM,42.8,33.1,69,29.87,10.0,Calm,Calm,-,N/A,,Clear,0,2014-02-24 03:15:00
10:35 PM,43.5,33.1,67,29.87,10.0,Calm,Calm,-,N/A,,Clear,0,2014-02-24 03:35:00
10:55 PM,42.4,33.4,70,29.88,10.0,Calm,Calm,-,N/A,,Clear,0,2014-02-24 03:55:00
11:15 PM,41.7,32.9,71,29.87,10.0,Calm,Calm,-,N/A,,Clear,0,2014-02-24 04:15:00
11:35 PM,45.3,32.9,62,29.88,10.0,Calm,Calm,-,N/A,,Clear,0,2014-02-24 04:35:00
11:55 PM,48.2,32.9,55,29.90,10.0,North,4.6,-,N/A,,Clear,360,2014-02-24 04:55:00